Overview Statistics Trail Chart Weather Telemetry Raw packets
 

This is the latest recevied weather packets stored in our database for station/object 4S6DRJ-13. If no packets are shown the sender has not sent any weather packets the latest 10 day(s).

<< 381 382 383 384 385 386 387 >>
Time Temp. Humidity Pressure Rain* Wind** Luminosity Snow
1787889033 29.44° C 79% 1011.3 hPa 0 mm 1.34 m/s, 192° 474 W/m² -
1787888971 29.44° C 79% 1011.1 hPa 0 mm 4.47 m/s, 197° 473 W/m² -
1787888911 29.44° C 79% 1011.2 hPa 0 mm 2.68 m/s, 257° 367 W/m² -
1787888850 29.44° C 79% 1011.2 hPa 0 mm 2.68 m/s, 312° 421 W/m² -
1787888789 29.44° C 79% 1011.1 hPa 0 mm 2.24 m/s, 238° 394 W/m² -
1787888728 29.44° C - - 0 mm 1.79 m/s, 226° 100 W/m² -
1787888666 29.44° C 79% 1011.2 hPa 0 mm 1.79 m/s, 284° 789 W/m² -
1787888606 29.44° C 80% 1011.4 hPa 0 mm 1.79 m/s, 334° 427 W/m² -
1787888545 29.44° C 80% 1011.1 hPa 0 mm 1.79 m/s, 162° 353 W/m² -
1787888484 29.44° C 79% 1011.3 hPa 0 mm 0.89 m/s, 203° 771 W/m² -
1787888424 29.44° C 79% 1011.3 hPa 0 mm 1.79 m/s, 226° 941 W/m² -
1787888362 29.44° C 80% 1011.3 hPa 0 mm 1.79 m/s, 68° 445 W/m² -
1787888300 29.44° C 80% 1011.2 hPa 0 mm 2.24 m/s, 296° 469 W/m² -
1787888240 29.44° C 80% 1011.3 hPa 0 mm 1.79 m/s, 269° 606 W/m² -
1787888178 29.44° C 80% 1011.1 hPa 0 mm 1.34 m/s, 51° 366 W/m² -
1787888118 29.44° C 79% 1011.3 hPa 0 mm 1.34 m/s, 221° 352 W/m² -
1787888056 29.44° C 79% 1011.2 hPa 0 mm 2.68 m/s, 306° 360 W/m² -
1787887996 29.44° C 79% 1011.4 hPa 0 mm 2.24 m/s, 279° 536 W/m² -
1787887935 29.44° C 80% 1011.2 hPa 0 mm 3.13 m/s, 270° 339 W/m² -
1787887874 29.44° C 80% 1011.1 hPa 0 mm 0.89 m/s, 6° 437 W/m² -
1787887813 29.44° C 81% 1011.3 hPa 0 mm 1.34 m/s, 141° 262 W/m² -
1787887752 29.44° C 81% 1011.2 hPa 0 mm 0.45 m/s, 240° 329 W/m² -
1787887691 29.44° C 81% 1011.1 hPa 0 mm 0.89 m/s, 263° 445 W/m² -
1787887630 29.44° C 81% 1011.1 hPa 0 mm 1.79 m/s, 238° 827 W/m² -
1787887569 28.89° C 81% 1011.2 hPa 0 mm 2.24 m/s, 267° 665 W/m² -

* Rain latest hour (hover to see other rain measurements)
** Current wind speed in m/s (hover to see current wind gust speed)